Location: Tarleton Observatory
(32.2162°N, 98.0976°W)
Time: 00:36:11
(UTC-05:00)

Daily predictions for brighter satellites

Satellite Brightness Start Highest point End
(mag) Time Altitude Azimuth Time Altitude Azimuth Time Altitude Azimuth
CZ-3 R/B 4.5 02:39:00 10° SW 03:34:32 54° SSE 03:47:21 10° E
ADEOS II 4.5 04:02:33 10° NE 04:05:00 18° ENE 04:05:00 18° ENE
USA 238 DEB 4.4 04:36:36 45° SE 04:37:12 46° ESE 04:43:47 10° NE
USA 238 4.4 04:36:39 44° SE 04:37:19 45° ESE 04:43:53 10° NE
Cosmos 2263 Rocket 3.7 04:50:25 28° N 04:50:25 28° N 04:53:05 10° NNE
Skynet4D Del rocket 4.2 05:08:21 49° SSE 05:08:21 49° SSE 05:13:17 10° ESE
ATLAS 3B R/B 2.7 05:09:15 63° SW 05:10:38 87° WNW 05:17:55 10° NNE
Atlas Centaur 2 2.2 05:16:11 74° SSW 05:16:31 76° S 05:22:02 10° E
ATLAS CENTAUR R/B 3.6 05:21:09 15° SSE 05:23:00 21° ESE 05:25:56 10° ENE
Cosmos 2208 Rocket 3.8 05:18:40 10° NNW 05:24:09 79° SW 05:29:07 10° SSE
Okean O Rocket 1.6 05:26:11 10° NNE 05:30:32 75° ESE 05:31:20 57° SSE
Delta 2 Rocket 3.9 05:29:53 65° WNW 05:30:33 74° NNW 05:36:18 10° ENE
CZ-4B R/B 3.8 05:28:42 10° N 05:31:14 37° N 05:31:14 37° N
Meteor 1-13 Rocket 4.4 05:27:38 14° S 05:32:46 81° E 05:38:42 10° N
Cosmos 724 4.3 05:32:02 35° SSW 05:34:45 83° ESE 05:40:49 10° NNE
Tiangong 1 3.4 05:36:08 21° E 05:36:08 21° E 05:37:18 10° E
ASC 2 Rocket 4.4 05:36:37 25° S 05:36:37 25° S 05:39:18 10° SE
CZ-4B R/B 3.3 05:32:18 10° NNE 05:37:36 71° ESE 05:42:57 10° S
OAO 1 Rocket 4.4 05:38:53 57° W 05:39:59 83° NNW 05:45:23 10° ENE
Nadezhda 2 Rocket 4.4 05:34:27 10° N 05:40:47 78° W 05:46:58 10° S
Meteor 2-4 Rocket 3.9 05:36:57 10° S 05:42:26 70° E 05:48:07 10° NNE
ADEOS II 2.5 05:41:13 10° N 05:45:56 39° WNW 05:45:56 39° WNW
Meteor 1-12 Rocket 4.3 05:40:13 10° NNW 05:46:06 59° W 05:51:57 10° S
Cosmos 2266 Rocket 4.4 05:41:24 10° NNW 05:47:12 38° W 05:47:29 37° W
DELTA 2 R/B (1) 4.1 05:44:36 28° NW 05:47:20 53° NNE 05:52:46 10° E
IRS-1C Rocket 4.1 05:42:37 10° NNE 05:47:54 81° ESE 05:53:11 10° S
Meteor 1-19 Rocket 4.3 05:51:05 16° SSW 05:55:42 60° W 06:01:27 10° N
PSLV R/B 4.0 05:52:15 10° N 05:55:49 38° WNW 05:55:49 38° WNW
Cosmos 332 Rocket 3.9 05:52:06 10° NNW 05:56:43 49° WSW 06:01:19 10° S
Cosmos 371 Rocket 3.3 05:55:42 10° NNW 06:00:27 55° WSW 06:05:09 10° S
NOSS 3-2 (A) 3.3 05:57:13 18° SSW 06:01:40 86° WNW 06:08:03 10° NNE
Cosmos 1544 Rocket 4.0 06:01:26 10° NNW 06:05:24 36° W 06:09:24 10° SSW
Cosmos 841 Rocket 4.2 06:02:57 10° N 06:08:03 56° ENE 06:13:10 10° SSE
Cosmos 2278 Rocket 3.2 06:04:04 10° S 06:09:27 48° ESE 06:14:53 10° NNE
Cosmos 468 Rocket 4.1 06:05:25 10° NNW 06:10:35 52° WSW 06:15:41 10° S
Landsat 4 3.7 06:08:19 10° SSE 06:12:07 85° ENE 06:15:58 10° N
Cosmos 1455 Rocket 3.6 06:08:57 10° NNW 06:12:50 33° W 06:16:41 10° SSW
COSMOS 2406 3.8 06:08:13 10° NNW 06:13:55 60° ENE 06:19:36 10° SSE
Cosmos 1666 3.0 06:11:01 10° NNW 06:14:35 40° W 06:18:09 10° SSW
Cosmos 1486 Rocket 4.2 06:11:17 15° SW 06:15:29 50° WNW 06:20:33 10° N
ERBS 4.4 06:13:00 10° S 06:15:55 26° ESE 06:18:51 10° ENE
Cosmos 1844 Rocket 3.1 06:17:35 15° SW 06:21:55 43° WNW 06:27:17 10° N
Meteor 1-4 Rocket 3.4 06:22:06 10° NW 06:25:03 26° W 06:28:00 10° SSW
Cosmos 1763 Rocket 3.5 06:20:50 10° NNW 06:26:07 70° WSW 06:31:23 10° S
Meteor 1-31 Rocket 3.1 06:24:25 10° N 06:28:04 42° WNW 06:31:40 10° SW
ASTRO E2 2.7 06:26:36 20° WSW 06:29:15 76° S 06:33:16 10° E
Cosmos 1743 4.1 06:27:32 10° NW 06:30:22 19° W 06:33:10 10° SW
GOES 2 Rocket 4.5 06:33:47 14° WSW 06:36:10 22° SSW 06:39:31 10° SSE
Okean-O 2.6 06:33:18 10° N 06:37:44 82° WNW 06:42:09 10° SSW
Okean 2 3.3 06:34:27 10° SSW 06:38:28 61° W 06:42:31 10° N
CZ-3 Stage 3 3.3 06:37:14 11° SW 06:40:26 56° SSE 06:52:28 10° E
Cosmos 304 Rocket 3.7 06:35:39 10° NNW 06:40:27 72° WSW 06:45:15 10° S
Meteor 1-23 Rocket 4.4 06:35:52 10° SSW 06:41:10 46° W 06:46:32 10° N
Meteor 1-28 Rocket 3.1 06:37:28 10° S 06:41:10 85° WSW 06:44:56 10° NNW
IDEFIX/ARIANE 42P 3.7 06:37:58 10° NNE 06:43:05 50° E 06:48:10 10° S
Meteor 1-15 Rocket 4.1 06:41:35 10° NNW 06:47:10 74° W 06:52:41 10° S
Abrixas 3.1 06:47:34 13° W 06:49:23 29° NW 06:51:35 10° NNE
Cosmos 1025 Rocket 3.5 06:46:48 10° SSW 06:50:45 38° W 06:54:46 10° N
USA 116 3.6 06:48:11 10° S 06:51:15 38° W 06:54:12 10° NNW
Cosmos 1892 Rocket 3.7 06:48:46 10° S 06:53:09 81° E 06:57:31 10° N
NOAA 6 4.1 06:50:28 10° N 06:55:34 60° WNW 07:00:40 10° SSW
ATLAS 5 CENTAUR R/B 2.8 06:50:43 10° NNW 06:56:54 76° ENE 07:03:34 10° SE
Okean 1-7 Rocket 4.2 06:55:40 10° SSW 06:59:48 36° W 07:04:01 10° NNW
Skynet4D Del rocket 4.3 06:54:27 10° W 07:00:03 45° S 07:05:11 10° ESE
Cosmos 1745 Rocket 4.4 06:55:14 10° NNW 07:01:08 41° W 07:06:57 10° SSW
ATLAS 3B R/B 4.3 06:57:37 10° W 07:02:15 17° NW 07:06:47 10° N
Cosmos 968 Rocket 3.7 06:57:10 10° S 07:02:17 76° ESE 07:07:23 10° NNE
